Temp
77 82 85 82 79 80 72 72 63 71 73 75 78 80 81 83 83 82 81 81 81 80 80 80 79 79 78 77 77 75 74 73 72 72 72 72 72 71 72 72 71 72 72 69
68 82 81 78 83 82 82 81 74 78 72 82 83 84 82 81 81 79 79 80 79 79 79 77 76 76 76 75 73 73 71 70 71 70 70 70 71 71 70 70 70 69 68 67
65 74 76 76 81 81 80 83 81 74 77 84 81 82 80 80 80 79 78 77 76 75 74 74 73 74 73 74 73 71 70 70 70 70 69 69 71 71 71 70 69 69 68 68
66 66 60 73 87 90 84 86 86 84 83 83 83 83 83 81 78 78 78 76 75 73 73 73 73 74 75 74 70 69 69 69 69 69 69 68 67 67 67 68 67 67 68 69
65 61 73 80 82 82 80 78 88 84 83 83 83 81 78 82 80 78 76 76 75 74 72 71 73 75 73 71 70 68 68 68 68 68 67 66 65 64 65 67 67 67 67 66
64 63 61 75 87 93 86 68 88 85 82 81 81 68 70 81 82 80 79 77 75 75 73 70 70 70 68 67 67 66 67 68 69 68 66 65 64 64 65 65 65 65 63 62
63 63 71 81 90 91 68 69 88 86 84 83 75 76 80 81 78 78 76 75 74 72 70 70 70 69 67 67 66 68 69 69 69 68 66 65 64 63 63 64 63 63 62 62
63 62 62 85 86 77 77 81 89 86 85 81 81 81 80 79 77 75 74 74 73 70 69 70 70 69 67 67 69 69 69 67 66 66 68 67 65 63 63 61 64 63 63 61
72 68 78 80 83 85 87 84 84 83 84 83 81 79 79 77 76 75 74 73 73 69 69 69 69 69 67 68 69 69 68 65 64 64 64 64 61 60 59 60 59 60 59 59
72 75 82 86 88 89 91 86 86 87 86 85 81 81 79 78 77 75 74 73 72 70 67 67 69 70 70 70 70 69 66 65 63 63 60 59 60 60 58 56 58 58 57 57
72 76 81 84 87 89 90 90 89 88 87 84 82 80 78 76 75 75 72 72 71 68 67 67 68 69 70 70 69 68 67 66 64 64 60 55 52 51 56 51 53 58 57 55
68 78 76 79 84 90 89 89 88 86 84 85 82 79 77 75 74 73 71 70 68 68 67 67 68 69 70 70 69 68 66 66 64 65 63 60 57 55 50 49 49 48 49 55
77 84 85 89 90 91 86 90 90 87 85 82 81 80 77 73 72 68 70 69 68 68 68 68 68 69 70 71 70 68 68 66 65 64 63 62 60 58 56 54 48 45 46 48
84 85 83 86 87 92 91 88 84 86 83 82 79 78 75 72 71 71 70 69 69 68 68 68 68 67 70 70 70 69 66 63 68 65 64 63 62 61 60 57 55 55 51 47
81 85 85 86 86 90 88 86 82 81 80 78 78 73 73 71 70 69 70 71 70 68 68 68 66 66 69 70 69 68 66 68 66 66 65 64 63 62 61 61 58 56 55 53
81 83 86 80 75 73 69 82 80 78 77 74 73 73 73 72 71 69 69 68 66 63 64 64 64 66 68 68 67 65 65 67 66 65 65 63 62 61 60 58 58 57 55 54
76 74 77 77 76 75 75 81 80 77 74 73 72 73 72 71 69 67 66 66 65 63 63 63 63 65 66 65 65 66 66 65 68 62 61 60 59 60 59 59 57 56 56 57
82 80 79 78 80 80 77 75 77 76 73 74 73 72 70 69 66 65 65 65 63 62 63 63 63 63 64 63 62 62 62 62 62 61 61 60 59 59 59 59 58 57 57 58
83 81 81 81 82 77 74 76 76 75 74 73 72 69 68 67 66 66 66 62 60 58 59 62 67 65 62 64 63 60 63 63 61 60 61 60 59 59 60 59 59 59 59 59
79 81 81 79 81 80 77 77 75 73 74 73 71 69 66 66 66 64 63 61 61 60 62 63 63 62 61 64 64 61 64 63 62 61 60 60 60 59 58 57 59 60 59 60
76 78 77 78 77 75 76 75 73 72 72 72 70 67 66 66 65 63 59 59 59 62 61 64 60 56 58 61 61 63 63 62 62 61 61 59 60 60 60 60 61 61 60 59
75 75 76 74 71 70 71 71 71 71 72 70 69 68 65 62 62 62 61 60 58 61 60 59 56 59 59 63 60 63 62 63 61 60 59 59 59 59 59 59 61 63 59 58
75 75 72 70 69 69 70 70 70 72 70 69 67 66 65 65 62 61 58 59 59 59 59 56 59 61 60 58 61 62 63 63 61 60 59 59 59 59 58 62 59 58 57 57
73 72 70 69 68 68 66 70 73 69 68 68 67 67 66 64 63 63 60 59 57 59 56 57 59 61 58 58 59 61 61 61 60 60 60 57 59 62 61 59 58 58 57 56
68 68 68 68 67 65 66 66 67 68 67 67 67 67 67 65 63 61 60 59 58 59 58 58 61 61 57 58 60 60 61 60 60 59 60 59 59 62 60 60 60 58 56 56
66 64 65 65 65 65 67 66 65 66 67 66 67 65 66 65 64 61 59 59 60 60 57 56 57 57 57 59 61 62 61 61 61 60 59 60 59 60 63 62 60 57 56 56
63 60 65 64 64 64 65 68 67 66 67 67 64 64 64 65 63 62 60 61 61 61 59 58 58 59 59 60 62 62 62 61 60 63 63 63 62 59 58 58 57 57 57 55
MSLP
997.18 996.54 996.42 996.86 998.06 998.80 999.61 1000.37 1001.40 1001.86 1001.90 1002.07 1002.44 1002.91 1003.52 1004.27 1005.12 1006.17 1007.04 1007.50 1008.03 1008.55 1008.93 1009.23 1009.42 1009.81 1010.20 1010.47 1010.55 1010.58 1010.79 1010.85 1011.49 1011.37 1011.16 1010.96 1011.00 1011.55 1011.24 1011.24 1011.58 1010.78 1010.93 1013.12
997.34 996.59 996.74 997.03 996.84 997.50 997.99 998.76 999.99 1000.81 1001.70 1001.63 1002.18 1002.99 1004.30 1005.22 1005.91 1007.03 1008.02 1008.65 1009.20 1009.61 1009.95 1010.41 1010.76 1011.01 1011.14 1011.47 1011.71 1011.75 1012.02 1012.20 1012.33 1012.26 1012.22 1011.96 1011.45 1011.55 1012.09 1012.09 1012.38 1012.46 1013.08 1013.26
998.00 997.00 996.81 996.00 995.39 996.57 997.24 997.67 998.98 1000.47 1001.40 1001.71 1002.97 1003.97 1005.14 1006.12 1006.81 1007.60 1008.58 1009.42 1010.04 1010.61 1011.02 1011.46 1011.82 1011.92 1012.15 1012.37 1012.59 1012.58 1012.83 1013.05 1012.81 1012.85 1012.81 1012.66 1012.21 1011.98 1011.97 1012.61 1012.76 1012.73 1012.83 1012.67
998.25 998.51 997.29 994.86 994.40 994.88 996.30 997.41 998.72 999.85 1000.99 1002.11 1003.33 1004.70 1005.67 1006.72 1007.54 1008.43 1009.08 1009.97 1010.81 1011.37 1011.77 1012.20 1012.48 1012.68 1012.98 1013.21 1013.31 1013.35 1013.42 1013.43 1013.47 1013.45 1013.44 1013.33 1013.18 1013.00 1012.76 1012.44 1012.25 1012.31 1012.25 1012.13
998.90 998.51 996.58 994.84 994.51 994.87 996.00 997.82 998.34 999.87 1001.47 1002.85 1004.05 1005.23 1007.01 1007.60 1008.35 1008.95 1009.64 1010.50 1011.31 1011.90 1012.41 1012.72 1012.98 1013.30 1013.52 1013.67 1013.81 1013.93 1014.04 1014.06 1014.11 1014.13 1014.18 1014.08 1013.97 1013.81 1013.39 1012.93 1012.63 1012.27 1012.10 1011.91
999.04 998.65 997.24 995.38 994.47 994.49 995.71 998.54 998.59 999.63 1001.34 1002.78 1004.09 1006.21 1007.82 1008.07 1008.76 1009.46 1010.14 1010.96 1011.75 1012.40 1012.83 1013.21 1013.49 1013.73 1013.94 1014.20 1014.31 1014.41 1014.46 1014.49 1014.47 1014.54 1014.68 1014.76 1014.71 1014.42 1014.26 1013.93 1013.80 1013.60 1013.38 1013.19
998.27 997.74 996.09 994.46 994.33 994.65 996.28 998.41 998.44 999.38 1000.84 1002.35 1004.09 1005.17 1006.97 1008.24 1009.27 1009.97 1010.75 1011.55 1012.24 1012.86 1013.30 1013.50 1013.79 1014.00 1014.29 1014.47 1014.66 1014.66 1014.73 1014.80 1014.81 1014.98 1015.11 1015.24 1015.33 1015.22 1015.21 1015.20 1015.09 1014.91 1014.72 1014.55
997.34 996.88 996.02 994.32 994.42 995.36 996.26 996.85 997.92 999.54 1000.98 1002.65 1004.05 1005.69 1007.11 1008.48 1009.63 1010.50 1011.25 1012.01 1012.64 1013.20 1013.57 1013.72 1013.98 1014.20 1014.52 1014.69 1014.64 1014.79 1015.04 1015.27 1015.45 1015.47 1015.50 1015.50 1015.59 1015.82 1015.81 1015.85 1015.84 1015.90 1015.79 1015.66
996.15 995.76 994.79 994.19 994.34 994.65 995.05 997.12 998.63 999.78 1000.98 1002.31 1004.07 1005.71 1007.22 1008.57 1009.70 1010.66 1011.46 1012.18 1012.76 1013.32 1013.75 1013.99 1014.22 1014.36 1014.63 1014.62 1014.65 1014.97 1015.35 1015.67 1015.87 1015.91 1016.04 1016.05 1016.32 1016.50 1016.53 1016.54 1016.52 1016.48 1016.47 1016.34
995.88 995.16 994.71 994.45 994.48 994.89 995.77 997.29 998.79 999.82 1001.13 1002.49 1004.15 1005.74 1007.22 1008.54 1009.65 1010.60 1011.46 1012.22 1012.83 1013.47 1014.00 1014.38 1014.36 1014.42 1014.46 1014.49 1014.57 1015.01 1015.53 1015.82 1016.06 1016.28 1016.59 1016.69 1016.84 1016.96 1017.17 1017.22 1017.18 1017.15 1017.07 1017.01
995.95 995.15 994.89 994.49 994.48 995.09 996.28 997.38 998.75 1000.01 1001.05 1002.50 1003.97 1005.79 1007.09 1008.58 1009.73 1010.63 1011.47 1012.36 1012.90 1013.70 1014.16 1014.45 1014.40 1014.38 1014.36 1014.51 1014.69 1015.05 1015.44 1015.75 1016.08 1016.49 1017.07 1017.44 1017.70 1017.75 1017.72 1017.88 1017.77 1017.49 1017.50 1017.50
995.89 994.99 994.91 994.88 994.78 994.99 996.19 997.64 998.68 1000.02 1001.70 1002.64 1003.58 1005.41 1007.10 1008.68 1009.80 1010.79 1011.71 1012.50 1013.18 1013.76 1014.12 1014.33 1014.37 1014.45 1014.51 1014.53 1014.77 1015.07 1015.37 1015.73 1016.01 1016.27 1016.91 1017.36 1017.66 1017.93 1017.87 1017.94 1017.91 1017.70 1017.53 1017.50
995.41 994.44 994.36 994.62 994.95 995.24 996.29 997.53 998.92 999.97 1001.33 1002.97 1004.45 1005.39 1007.12 1008.73 1010.03 1010.96 1011.85 1012.56 1013.24 1013.67 1013.94 1014.17 1014.37 1014.48 1014.44 1014.49 1014.67 1015.15 1015.47 1015.64 1015.84 1016.14 1016.56 1016.98 1017.38 1017.65 1018.08 1018.27 1018.09 1017.98 1017.74 1017.58
995.68 994.89 994.95 994.79 995.43 996.16 997.08 998.27 999.41 1000.81 1002.25 1003.37 1004.73 1006.33 1007.60 1009.04 1010.32 1011.24 1012.03 1012.57 1013.15 1013.62 1013.99 1014.26 1014.48 1014.58 1014.44 1014.54 1014.77 1015.11 1015.49 1015.62 1015.83 1016.13 1016.37 1016.56 1016.83 1017.18 1017.41 1017.78 1018.21 1018.20 1017.93 1017.73
996.78 996.13 995.71 996.02 996.32 997.26 997.66 998.86 1000.26 1001.79 1003.19 1004.54 1005.67 1006.94 1008.17 1009.34 1010.41 1011.35 1011.99 1012.57 1013.18 1013.77 1014.16 1014.39 1014.66 1014.86 1014.66 1014.71 1014.97 1015.42 1015.65 1015.84 1015.88 1015.85 1016.05 1016.16 1016.45 1016.72 1016.97 1017.18 1017.82 1018.10 1018.11 1017.87
997.89 997.38 996.91 997.67 998.47 998.98 1000.40 1002.68 1001.26 1002.90 1004.44 1005.73 1006.67 1007.78 1008.63 1009.68 1010.66 1011.46 1012.08 1012.77 1013.50 1014.25 1014.55 1014.72 1014.95 1015.04 1014.94 1014.92 1015.12 1015.53 1015.63 1015.68 1015.82 1016.10 1016.19 1016.28 1016.49 1016.73 1017.05 1017.10 1017.68 1018.04 1018.05 1017.84
998.75 998.31 998.36 998.97 999.25 999.29 999.80 1002.31 1002.52 1002.85 1004.66 1006.17 1007.68 1008.64 1009.45 1010.32 1011.20 1012.04 1012.63 1013.10 1013.73 1014.31 1014.75 1015.01 1015.22 1015.13 1015.14 1015.34 1015.31 1015.49 1015.62 1015.84 1016.03 1016.49 1016.59 1016.74 1016.90 1016.91 1017.06 1017.20 1017.69 1017.80 1017.71 1017.47
998.79 998.73 999.07 999.27 999.94 999.99 1001.17 1003.24 1002.08 1003.30 1004.84 1006.44 1008.10 1009.37 1010.12 1010.76 1011.68 1012.64 1013.40 1013.88 1014.23 1014.72 1015.06 1015.19 1015.31 1015.39 1015.43 1015.53 1015.65 1015.67 1015.91 1016.16 1016.45 1016.73 1016.80 1016.89 1017.20 1017.26 1017.37 1017.46 1017.59 1017.69 1017.65 1017.33
999.00 998.70 998.88 999.43 1000.26 999.37 999.49 1000.56 1003.32 1004.11 1005.02 1006.42 1008.27 1009.66 1010.48 1011.18 1011.98 1012.89 1013.67 1014.50 1014.99 1015.28 1015.30 1015.18 1015.35 1015.52 1015.64 1015.65 1015.69 1015.73 1015.77 1016.19 1016.58 1016.91 1017.10 1017.15 1017.30 1017.29 1017.39 1017.37 1017.36 1017.34 1017.38 1017.29
999.18 998.93 998.90 999.35 1000.01 999.93 1001.08 1002.30 1003.32 1004.16 1005.61 1007.00 1008.25 1009.38 1010.76 1011.71 1012.32 1013.14 1013.87 1014.63 1015.09 1015.25 1015.25 1015.21 1015.36 1015.49 1015.63 1015.72 1015.82 1015.98 1016.01 1016.37 1016.67 1016.94 1017.14 1017.26 1017.33 1017.54 1017.46 1017.48 1017.39 1017.29 1017.18 1017.21
999.04 999.24 999.24 1000.10 1000.90 1001.62 1001.51 1002.15 1003.17 1004.61 1006.04 1007.08 1007.99 1009.23 1010.59 1011.77 1012.51 1013.33 1014.18 1014.80 1015.30 1015.34 1015.54 1015.41 1015.59 1015.83 1015.74 1015.85 1015.89 1015.88 1016.19 1016.62 1016.88 1017.11 1017.26 1017.37 1017.53 1017.58 1017.51 1017.43 1017.23 1017.06 1017.17 1017.37
999.37 999.63 999.89 1000.60 1001.50 1002.23 1002.34 1003.04 1003.84 1004.79 1005.37 1006.98 1008.44 1009.53 1010.87 1012.14 1012.96 1013.75 1014.30 1014.87 1015.43 1015.50 1015.71 1016.01 1016.03 1015.94 1015.97 1016.11 1016.15 1016.04 1016.45 1016.65 1016.89 1017.07 1017.34 1017.46 1017.55 1017.67 1017.53 1017.40 1017.26 1017.25 1017.40 1017.49
999.10 999.27 1000.20 1001.25 1001.99 1002.24 1002.68 1003.40 1003.75 1004.76 1005.81 1006.69 1008.15 1009.80 1011.23 1012.33 1013.06 1013.77 1014.68 1015.05 1015.26 1015.70 1015.88 1016.03 1016.07 1016.19 1016.21 1016.37 1016.26 1016.25 1016.52 1016.69 1017.03 1017.19 1017.45 1017.43 1017.41 1017.49 1017.59 1017.26 1017.39 1017.23 1017.29 1017.30
998.66 999.36 1000.46 1001.89 1003.00 1003.96 1004.20 1004.22 1004.50 1005.48 1006.71 1007.68 1008.47 1010.03 1011.20 1012.33 1013.27 1013.62 1014.33 1014.82 1015.35 1015.81 1015.99 1016.25 1016.36 1016.47 1016.45 1016.51 1016.59 1016.46 1016.72 1016.88 1017.04 1017.12 1017.19 1017.17 1017.23 1017.21 1017.01 1017.09 1017.06 1017.01 1017.17 1017.31
999.84 1000.64 1001.59 1002.65 1003.31 1004.02 1004.76 1006.36 1005.86 1005.92 1007.12 1008.37 1009.09 1009.99 1010.94 1011.70 1012.91 1014.13 1014.44 1015.16 1015.47 1015.66 1016.01 1016.43 1016.64 1016.67 1016.67 1016.67 1016.54 1016.52 1016.76 1016.85 1016.90 1016.94 1016.98 1016.97 1016.82 1016.77 1016.72 1016.77 1017.00 1017.17 1017.27 1017.35
1001.43 1001.88 1002.84 1002.73 1003.67 1003.43 1005.68 1006.65 1006.18 1007.31 1008.01 1008.41 1009.21 1010.18 1011.04 1011.83 1012.51 1013.46 1014.18 1015.02 1015.34 1015.51 1016.06 1016.59 1016.70 1016.65 1016.58 1016.56 1016.47 1016.37 1016.52 1016.53 1016.44 1016.49 1016.52 1016.51 1016.62 1016.49 1016.45 1016.82 1017.09 1017.24 1017.35 1017.41
1003.02 1003.61 1003.03 1003.87 1004.67 1005.90 1006.17 1006.07 1006.26 1007.45 1008.17 1008.61 1009.66 1010.44 1011.64 1012.43 1012.98 1013.34 1013.74 1014.53 1014.88 1015.47 1016.05 1016.26 1016.39 1016.46 1016.47 1016.53 1016.31 1016.14 1016.10 1016.02 1015.96 1015.89 1016.06 1016.33 1016.38 1016.30 1016.63 1016.86 1016.99 1017.04 1017.05 1017.12
Wind_Speed
5 3 2 10 17 13 8 6 7 13 13 10 11 11 11 17 19 18 17 16 13 12 12 11 11 13 12 12 14 12 14 12 11 10 10 11 10 9 10 9 6 13 8 4
5 5 4 9 20 15 14 10 4 9 8 11 11 16 17 16 18 17 15 14 14 13 13 13 12 11 12 12 12 11 13 11 9 10 9 8 9 9 8 8 7 3 7 6
6 7 12 11 10 18 9 8 9 17 13 13 13 18 15 15 15 15 14 12 12 12 11 11 11 9 11 11 10 11 10 8 8 7 7 7 8 10 10 6 1 1 4 5
5 2 7 4 6 11 14 20 18 18 13 19 19 15 16 13 14 13 13 12 12 10 8 9 8 10 10 9 7 7 8 8 7 7 9 8 9 9 9 9 7 5 4 5
6 3 6 1 2 5 13 13 20 22 23 23 22 21 13 12 11 11 11 12 11 9 8 7 8 8 7 6 7 7 7 7 8 7 8 9 10 9 8 9 11 11 10 10
6 5 8 9 5 7 13 6 24 27 25 25 20 13 6 12 12 12 13 11 11 10 7 7 7 7 7 7 6 6 6 6 6 7 8 10 10 11 10 8 10 10 13 14
4 3 5 1 9 10 10 10 23 26 24 21 11 11 15 16 14 13 12 13 11 7 6 6 8 7 7 6 6 5 6 6 7 6 7 6 6 5 8 10 9 11 11 11
4 4 6 2 6 11 10 7 20 20 15 18 23 21 19 17 15 14 14 11 8 6 5 7 7 7 5 5 4 6 6 6 7 7 5 4 5 4 6 7 10 10 10 9
9 8 7 4 8 7 12 20 21 24 25 27 24 22 18 16 17 15 14 10 8 7 7 7 6 6 5 3 5 7 7 6 6 6 6 6 7 7 5 4 4 5 5 5
7 3 9 7 7 7 21 25 23 26 24 24 23 20 18 14 14 13 12 10 7 8 7 7 5 5 4 6 6 7 7 6 5 6 6 6 5 4 5 5 5 4 4 4
2 6 1 5 10 13 19 25 26 25 26 25 23 19 18 14 13 11 9 11 9 8 6 6 5 5 5 5 7 6 7 5 5 5 6 5 5 4 3 1 1 3 2 3
6 3 7 5 9 13 16 23 26 24 21 21 25 21 18 14 10 12 13 11 8 8 8 7 5 4 5 4 6 4 2 4 2 4 5 4 4 4 6 4 4 5 3 5
3 6 7 10 9 8 9 22 22 24 23 22 19 21 18 15 13 13 12 10 8 8 7 7 6 5 3 4 6 6 5 4 4 5 4 4 4 4 4 2 4 6 7 7
12 9 4 2 7 12 18 20 22 20 19 20 21 18 17 17 14 13 11 8 8 8 7 7 5 4 3 4 7 6 4 3 4 4 4 4 4 4 4 4 3 0 3 2
14 16 3 18 15 13 26 26 25 21 20 19 17 19 18 15 12 11 9 9 8 8 7 7 7 5 4 6 7 6 5 4 2 4 3 4 4 4 4 4 5 3 2 4
12 12 12 15 18 18 19 9 24 20 18 16 17 15 13 14 13 9 8 8 8 6 7 7 7 3 4 5 5 5 4 5 4 2 3 5 4 5 4 5 6 4 1 1
7 12 13 9 11 13 17 25 18 19 19 17 15 13 16 14 11 9 9 10 9 8 7 7 4 4 5 7 5 3 4 2 7 5 5 4 3 4 4 4 5 4 2 1
6 5 6 8 4 22 20 10 14 20 19 17 14 14 13 13 11 11 10 9 8 8 6 5 5 4 5 6 5 4 2 5 5 4 3 3 4 4 4 4 3 4 3 3
7 8 8 4 7 19 20 21 19 18 19 19 17 14 10 10 10 11 10 8 7 7 4 6 4 3 3 3 5 4 4 6 5 4 3 3 3 3 3 2 2 2 1 2
8 7 9 10 17 21 22 20 22 20 18 18 16 15 13 10 10 10 8 9 7 5 7 6 5 5 2 4 6 4 5 6 6 4 3 3 3 3 2 0 2 2 3 4
8 8 10 7 13 13 18 21 22 20 18 17 17 16 13 10 9 9 8 7 5 7 7 7 5 2 4 5 6 4 5 5 5 3 2 3 3 3 3 2 3 0 4 4
7 8 3 14 15 15 17 17 16 16 19 16 15 14 12 9 9 8 7 7 4 8 5 4 4 7 5 7 4 5 5 4 3 4 4 4 3 2 4 3 2 5 5 4
7 9 16 18 18 18 17 16 16 18 16 18 17 14 11 8 5 7 7 5 5 5 5 4 7 8 7 4 2 5 4 4 4 4 3 3 2 3 3 2 4 4 3 3
1 13 17 12 12 11 15 17 18 17 15 15 15 12 11 7 6 5 6 7 11 8 6 5 6 6 5 3 4 3 4 4 4 3 1 4 4 4 1 2 3 2 3 5
12 11 13 16 17 13 15 10 13 18 17 15 13 11 9 7 7 5 6 7 14 8 6 6 6 3 1 3 1 4 3 1 3 3 4 4 4 4 2 1 2 5 4 3
14 10 8 9 10 11 15 13 12 12 12 11 8 6 10 9 10 9 7 7 6 8 5 4 4 3 3 3 2 2 3 4 5 6 6 5 4 4 1 5 5 5 4 3
4 10 12 14 9 8 9 12 12 12 10 10 10 10 10 9 9 9 8 6 6 6 5 5 5 5 4 4 3 4 5 5 6 5 2 3 2 3 6 5 4 4 4 3
Wind_Direction
302 241 340 169 132 109 108 154 126 164 139 158 142 118 108 95 86 81 75 72 70 67 61 51 46 49 52 48 41 41 50 47 34 29 26 35 33 20 22 17 116 119 184 258
312 274 333 280 150 141 142 203 159 141 115 127 114 100 96 99 97 93 89 79 70 62 62 59 53 49 49 50 49 51 56 48 47 47 42 27 19 16 35 34 41 161 206 254
263 326 324 224 176 167 185 180 157 128 146 123 105 104 106 101 97 99 95 88 77 72 64 66 60 52 56 56 51 52 57 51 52 42 38 25 14 12 11 33 49 164 245 255
262 323 262 183 95 146 119 112 115 115 113 107 108 102 97 94 102 101 100 96 87 81 70 75 72 62 61 60 57 55 47 39 30 28 38 29 20 9 357 350 345 340 309 287
132 198 267 186 170 116 131 151 130 116 108 108 105 97 86 99 101 107 108 105 104 98 86 82 91 95 89 70 57 58 50 41 36 48 45 31 24 8 359 5 16 13 16 18
133 179 226 214 172 117 103 101 133 125 127 126 119 111 142 124 114 101 98 104 107 104 99 95 98 96 88 81 75 64 57 50 52 58 57 43 26 21 24 31 33 29 31 28
190 197 279 233 145 106 93 211 146 140 141 139 133 139 134 112 102 98 99 103 99 96 109 120 91 92 85 95 93 81 73 64 48 73 75 69 54 38 46 39 32 38 38 36
166 145 249 287 148 132 200 117 142 131 135 120 121 122 125 127 124 117 116 114 122 124 107 99 100 99 99 96 116 95 84 73 57 49 37 37 59 63 57 70 59 53 51 46
163 205 201 97 127 138 111 117 126 126 128 128 128 129 132 137 139 139 133 134 122 119 109 97 106 108 99 129 111 106 94 88 74 62 46 44 48 37 31 55 70 58 48 46
57 293 141 131 115 110 119 129 130 130 133 132 132 135 133 130 129 130 134 136 125 106 97 107 111 112 114 102 121 120 119 114 104 88 70 56 49 51 48 28 27 38 48 62
233 294 44 156 134 128 120 132 133 136 137 136 133 134 130 130 131 134 125 121 118 116 123 112 97 75 125 114 109 105 137 157 153 133 100 82 64 49 74 55 356 70 50 67
219 200 143 192 140 135 128 145 144 139 139 140 137 136 130 129 128 120 119 120 117 127 135 142 137 103 103 118 128 152 120 89 120 142 152 143 117 82 55 37 336 62 58 99
261 155 142 123 113 138 123 136 140 138 138 136 130 127 127 124 122 121 121 127 139 145 129 114 112 108 85 100 78 68 110 107 99 90 110 147 143 133 127 53 54 39 42 67
353 351 60 130 162 122 108 105 112 112 117 123 123 120 117 123 126 129 140 142 131 127 125 129 113 101 123 66 92 66 46 31 120 132 127 128 139 169 172 161 146 326 330 306
356 352 298 68 56 91 121 122 120 121 122 122 120 122 127 132 126 127 125 124 124 127 133 124 94 55 83 91 95 81 69 52 41 115 117 148 177 187 207 199 139 146 310 323
338 351 11 92 100 91 69 330 115 122 120 117 120 128 127 122 126 127 129 125 119 114 103 95 86 51 52 108 127 114 102 55 71 98 51 18 28 54 60 59 116 129 205 333
354 348 357 36 175 153 152 177 145 129 125 123 127 129 125 127 118 111 103 104 106 101 101 103 101 42 29 51 19 105 117 85 57 76 58 50 45 64 54 70 126 148 128 264
309 318 352 1 136 123 113 96 123 126 127 128 125 127 132 133 131 122 117 115 109 106 117 118 91 65 52 49 23 24 115 119 96 92 77 60 61 83 61 51 50 144 214 255
293 311 323 17 181 149 148 145 153 135 131 131 132 137 130 123 123 126 128 121 115 119 153 135 143 112 92 56 26 335 126 100 84 70 37 49 27 114 103 62 20 7 325 277
280 297 303 334 158 149 145 144 141 132 133 133 130 125 129 130 130 130 134 142 161 166 163 158 144 123 105 38 22 1 88 105 101 89 77 54 44 10 144 148 294 329 26 14
234 255 277 145 154 150 138 141 138 135 132 134 136 136 137 136 134 123 112 115 153 147 130 94 102 8 82 36 -0 94 96 102 112 129 117 100 59 31 28 6 335 148 51 66
213 234 213 125 126 128 130 129 128 133 132 129 131 124 123 120 120 129 126 141 153 137 131 111 97 68 55 21 342 93 78 63 89 74 61 72 74 6 303 303 354 58 84 93
223 205 143 141 146 146 141 140 136 135 133 127 126 126 129 131 119 127 135 170 145 120 102 113 110 75 37 18 52 86 120 84 80 61 46 56 348 307 289 71 98 132 123 126
175 141 151 146 139 141 140 146 130 118 115 115 117 125 137 141 139 122 113 132 128 122 123 134 115 89 44 2 360 81 74 83 93 100 358 310 284 279 299 119 166 139 76 79
99 104 133 147 141 133 106 106 120 118 122 128 134 141 148 110 122 135 112 118 123 115 115 129 134 117 0 320 252 109 96 147 190 192 232 257 265 280 277 148 123 102 112 105
111 109 98 112 115 119 138 148 126 134 136 135 134 115 118 130 130 126 133 137 119 126 130 163 184 207 263 293 272 141 213 241 227 222 225 245 277 268 100 90 110 100 94 92
158 148 127 123 146 153 154 133 125 129 134 140 126 133 131 132 129 128 127 141 143 150 167 190 191 207 231 246 211 234 240 247 243 238 171 199 206 77 112 125 124 120 114 107